Location: Newark
(41.6500°N, 71.4833°W)
Time: 01:09:39
(UTC+00:00)

A-11 Canister half - Pass Details

Date: 26 January 2020
Orbit: 1517 x 1683 km, 47.2° (Epoch: 19 February)

Event Time Altitude Azimuth Distance (km) Brightness Sun altitude
Rises 08:24:54 0° 290° (WNW) 4,681 - -40.8°
Reaches altitude 10° 08:27:59 10° 292° (WNW) 3,689 - -40.2°
Maximum altitude 08:37:15 74° 18° (NNE) 1,574 - -38.5°
Exits shadow 08:37:37 73° 36° (NE) 1,579 8.9 -38.4°
Drops below altitude 10° 08:46:34 10° 103° (ESE) 3,702 11.7 -36.8°
Sets 08:49:39 0° 105° (ESE) 4,699 12.4 -36.2°
